RH
4 4 5 9 10 10 9 9 10 8 8 8 9 14 8 11 28 17 6 19 19 25 28 28 29 32 32 34 32 38 60 54 39 36 41 38 45 56 54 58 66 60 63 62 65
4 4 5 7 10 10 10 9 9 10 9 8 9 9 10 10 28 30 13 14 20 26 27 28 28 28 31 29 32 43 57 37 30 34 46 43 58 57 62 67 62 66 70 82 83
5 5 5 6 10 11 11 10 10 11 10 8 10 7 16 28 28 13 11 12 22 28 28 28 25 28 30 29 34 38 44 30 31 33 36 56 61 54 63 69 70 73 83 81 82
5 6 6 7 10 13 11 11 10 11 10 8 11 9 11 16 16 10 12 14 23 29 30 28 25 27 34 33 31 43 35 32 33 34 36 58 59 58 62 67 70 72 74 81 85
7 7 7 8 9 13 13 11 10 10 10 8 10 9 10 14 11 9 14 14 23 32 31 29 33 31 36 30 33 40 37 33 32 34 54 54 77 69 74 70 64 72 78 83 84
8 9 9 10 10 15 14 12 11 10 12 7 10 9 14 18 10 10 15 17 24 30 27 25 35 33 28 30 37 36 34 35 34 37 49 69 65 63 80 69 68 81 83 92 95
10 11 11 12 11 16 16 13 11 10 13 7 9 12 16 12 8 10 15 19 24 22 22 28 30 31 29 33 31 31 39 41 39 39 52 61 78 83 72 61 73 84 87 94 98
13 12 14 13 14 16 16 14 10 10 10 9 12 14 19 11 9 9 18 19 20 19 24 28 30 30 27 26 30 34 45 55 38 42 52 46 76 78 59 63 75 78 94 100 98
20 15 18 15 16 17 18 13 12 12 9 10 16 17 15 12 12 12 14 18 20 25 26 29 33 27 26 47 49 57 60 51 46 42 51 54 80 64 56 65 77 84 97 99 98
42 31 37 24 20 19 20 14 13 13 10 11 11 13 14 15 13 14 12 18 23 24 25 26 24 43 48 54 72 60 59 52 55 44 52 64 92 61 58 62 74 87 90 98 98
84 60 45 50 40 28 24 15 21 23 16 16 17 15 14 11 13 16 14 17 21 26 24 25 43 52 41 38 39 42 48 59 47 44 52 79 79 68 56 61 86 93 94 97 97
93 91 78 59 56 44 28 16 22 30 35 19 14 15 12 14 16 14 20 23 22 23 19 30 32 32 32 39 45 49 55 57 48 40 46 69 87 79 56 62 68 99 97 98 98
92 98 93 80 61 61 39 35 29 44 56 22 20 19 13 19 23 23 22 27 24 24 29 24 28 31 34 41 48 52 51 53 56 49 55 79 92 81 59 51 54 71 95 98 98
92 95 96 91 78 52 38 49 72 80 98 42 21 22 17 22 28 28 29 34 26 29 34 23 28 39 38 38 43 60 45 46 53 72 95 65 94 88 64 60 55 63 85 98 98
99 96 98 98 81 67 67 74 92 90 100 21 22 17 20 22 24 29 33 33 36 32 29 29 29 43 43 37 38 51 43 53 59 71 79 84 89 91 69 71 71 68 79 93 98
98 100 100 98 92 82 82 92 93 99 98 27 23 21 18 20 24 30 39 35 40 37 27 24 26 37 36 36 36 37 66 69 66 80 96 83 84 96 97 90 79 74 82 92 97
100 100 100 100 87 85 93 96 100 100 30 28 30 26 26 24 26 38 72 74 68 80 75 40 26 33 36 45 43 48 78 79 66 90 90 78 86 89 80 81 87 86 88 92 97
100 100 100 100 90 93 97 98 100 88 40 38 27 23 25 30 29 31 53 77 69 88 84 63 42 37 39 42 50 53 80 84 52 100 87 65 100 90 64 64 71 81 89 89 98
100 100 100 100 93 95 96 100 98 83 51 36 29 30 30 31 48 39 48 67 69 82 72 74 40 37 39 41 38 49 80 70 94 92 98 88 85 70 55 65 73 79 86 92 98
100 100 100 100 99 100 99 98 90 54 50 40 88 33 30 35 43 69 52 66 77 61 66 89 79 29 37 40 39 52 50 72 90 100 100 83 95 96 85 82 82 85 91 93 94
100 99 99 100 100 100 100 96 70 81 75 85 76 75 31 47 55 56 64 61 64 63 65 82 79 69 50 65 64 68 83 78 80 93 100 100 91 88 93 91 96 91 91 93 96
100 99 100 100 100 100 99 79 74 84 96 98 82 36 34 37 46 64 52 65 60 59 81 73 90 82 68 59 44 56 65 81 83 77 95 94 89 87 85 76 88 86 83 83 87
100 98 100 100 100 99 85 95 98 96 98 83 49 37 33 38 53 43 65 64 59 60 80 73 88 83 52 66 59 61 61 70 86 93 99 97 78 75 70 68 71 83 78 78 78
98 98 100 100 100 90 95 97 97 98 99 71 42 32 31 29 35 54 69 57 65 76 68 67 93 57 47 45 79 70 91 76 80 98 95 92 83 71 69 77 67 79 79 75 82
100 97 88 98 99 98 98 91 93 95 98 68 45 57 50 68 73 56 62 69 68 71 62 77 78 83 61 50 65 75 91 96 94 79 84 65 90 80 76 76 64 86 78 71 81
97 96 99 97 97 97 95 97 89 97 94 94 95 87 47 68 63 65 72 71 73 75 92 87 89 70 77 67 71 81 71 84 92 81 86 88 88 63 56 58 68 80 79 82 79
99 100 89 99 99 98 96 97 95 97 98 82 90 48 46 52 56 63 59 60 69 84 92 86 81 86 75 66 79 68 75 83 82 89 80 82 68 66 66 61 82 77 83 85 79
Wind_Speed
11 13 14 16 16 16 14 10 8 8 8 8 10 7 10 2 4 11 17 13 12 10 10 11 12 7 5 4 8 4 4 2 3 3 5 14 8 11 12 12 11 19 24 37 42
10 13 13 14 15 15 14 12 10 9 8 8 8 6 10 2 2 9 19 10 9 8 11 15 20 7 2 4 3 4 3 1 2 2 3 9 7 12 8 13 17 34 29 30 32
8 10 12 13 14 14 14 12 10 9 7 7 4 5 6 2 1 7 17 6 6 10 13 16 10 6 0 3 2 3 2 2 2 7 8 1 4 8 9 5 19 29 41 37 30
9 9 9 10 12 13 14 13 11 10 8 6 5 4 2 4 0 12 11 6 4 9 12 6 11 5 3 3 3 1 2 4 4 6 7 2 4 3 12 11 26 27 31 33 32
10 11 11 11 11 13 14 14 12 9 9 5 5 4 2 0 3 14 8 6 4 8 11 10 11 7 3 3 6 3 3 7 10 6 8 2 5 2 10 24 27 27 32 32 32
10 8 10 12 13 13 14 14 12 9 8 5 5 2 3 4 8 13 6 5 3 4 8 11 6 10 3 3 1 3 9 14 11 5 6 4 3 4 11 28 32 28 29 32 32
12 11 10 11 12 13 15 13 10 9 7 4 5 2 2 2 9 14 5 4 3 3 8 9 8 7 8 4 7 7 5 8 4 4 2 6 4 8 18 27 28 30 32 34 35
12 12 12 11 13 14 13 11 10 9 5 2 2 2 3 4 8 13 4 4 3 2 5 6 8 10 7 15 4 2 4 5 5 4 1 4 2 5 26 22 26 31 36 35 37
11 10 12 14 14 14 13 10 8 8 2 2 2 2 4 6 8 16 6 3 2 4 5 8 8 2 13 4 5 7 3 8 7 2 2 0 2 8 21 22 24 31 35 37 41
11 10 10 13 14 13 12 9 8 5 2 2 2 2 2 5 10 11 5 3 2 5 6 1 4 4 5 6 1 5 5 6 6 5 3 3 5 4 15 23 27 30 35 37 41
13 13 11 12 13 14 12 9 5 1 4 2 2 2 5 7 5 9 7 3 4 3 2 3 7 3 8 5 2 4 5 7 4 3 5 6 4 1 11 20 24 28 35 38 42
15 16 15 13 11 10 10 7 6 4 7 6 3 3 3 2 4 11 3 0 3 2 5 5 2 6 8 6 6 6 4 3 11 9 5 6 2 3 8 14 26 27 36 38 45
19 19 17 13 9 8 4 5 2 4 4 3 4 4 1 1 2 13 9 2 4 3 5 5 3 6 5 4 8 5 3 3 6 8 1 9 1 4 5 18 31 29 33 37 40
22 20 15 14 8 6 3 4 8 6 2 2 2 1 2 3 2 10 7 2 3 2 2 3 4 4 3 2 5 4 1 12 11 4 1 3 3 4 13 18 23 32 39 40 44
22 21 18 14 9 10 8 8 5 1 4 3 1 1 4 2 1 4 10 3 3 1 4 1 4 5 4 4 8 8 15 13 6 1 2 2 3 5 8 19 26 30 38 40 43
22 22 19 18 13 10 7 5 3 1 5 1 2 2 2 2 1 3 4 5 3 1 1 2 2 3 2 8 2 12 5 3 1 2 3 5 4 4 6 10 21 26 36 38 42
27 22 21 15 9 8 5 6 1 3 1 1 1 2 1 1 1 2 4 6 2 3 3 3 2 2 5 5 6 11 6 4 6 5 4 1 6 2 5 7 8 20 32 37 40
28 26 19 14 10 5 8 2 4 2 2 2 1 2 3 1 0 0 4 2 4 3 3 2 3 4 6 3 3 5 4 4 3 3 5 5 2 4 1 12 20 21 25 35 41
29 22 16 12 8 9 7 2 4 3 3 4 0 4 2 1 1 1 3 3 1 1 3 3 0 2 1 2 3 5 5 4 3 3 2 1 3 3 13 12 23 30 34 38 41
26 20 12 11 10 13 2 5 4 3 4 3 7 2 3 3 2 2 2 0 2 1 2 3 3 0 1 2 7 5 2 4 3 4 5 4 2 4 14 17 17 25 30 36 41
24 8 10 14 15 7 3 4 3 3 4 5 5 5 1 2 4 2 1 1 1 1 3 3 3 4 3 4 1 4 4 3 3 3 3 3 3 5 5 5 7 20 29 33 37
16 3 16 21 5 3 3 4 4 4 2 2 1 3 1 3 1 2 3 1 5 4 2 1 4 2 2 2 1 2 2 3 4 6 2 3 4 3 5 7 9 24 30 34 35
12 7 22 21 3 3 2 2 3 4 3 5 6 2 1 4 1 3 3 2 4 1 4 3 1 2 6 5 4 1 3 3 3 3 3 3 5 4 4 8 19 21 30 34 37
13 4 5 10 4 4 5 4 5 3 3 4 2 4 2 2 2 3 2 2 2 2 4 1 2 5 5 6 4 1 1 3 4 2 2 5 5 7 10 9 19 22 27 34 35
14 6 9 5 5 4 5 8 6 6 3 3 3 5 5 3 2 4 3 2 2 3 2 3 2 2 3 2 3 5 4 4 4 4 4 4 3 6 6 5 14 16 27 35 35
11 7 7 6 12 10 9 8 10 5 8 5 4 12 7 5 4 7 6 4 4 3 2 3 2 3 4 3 2 3 6 7 5 4 9 7 9 5 5 11 17 18 25 29 34
10 11 11 10 5 6 6 6 9 13 7 2 12 5 6 3 11 14 11 11 8 6 3 2 3 2 4 3 4 5 6 8 4 4 5 3 6 2 6 11 11 19 22 24 29
Wind_Direction
355 355 360 2 2 1 357 353 349 340 341 336 333 332 343 232 340 359 10 3 3 21 47 38 6 326 8 356 25 5 60 54 8 348 285 352 348 8 343 334 351 339 324 313 310
351 351 354 358 357 356 355 349 342 336 334 339 344 357 360 148 300 315 353 345 6 20 26 359 338 352 171 54 23 64 91 64 317 343 347 352 38 348 10 10 338 329 327 319 317
344 350 346 352 351 350 350 346 335 328 324 336 348 2 23 35 328 327 341 343 22 41 11 352 350 278 0 97 58 5 133 305 1 332 338 265 28 31 21 357 344 328 327 330 325
335 338 337 345 344 344 343 342 332 325 319 317 330 335 344 349 242 339 343 342 23 36 7 6 14 25 70 21 34 72 311 19 290 278 307 121 120 61 42 336 323 332 331 327 327
331 331 330 338 339 340 341 338 331 325 326 310 325 326 286 302 323 342 351 345 26 28 354 9 28 22 12 334 331 183 294 289 280 257 106 98 94 175 27 353 351 331 339 334 326
321 325 330 332 331 336 337 334 332 318 327 304 324 290 330 261 322 344 354 26 47 45 4 16 13 351 267 277 217 246 295 282 291 209 113 112 76 65 341 337 351 347 337 337 333
319 322 329 329 328 334 334 332 336 322 315 303 320 225 296 217 325 343 349 40 11 18 24 39 32 15 326 290 222 253 303 317 265 188 67 169 85 16 341 346 338 344 344 340 338
320 324 328 331 326 332 333 333 338 336 303 310 319 235 272 288 325 352 10 337 342 50 18 32 355 321 336 305 295 280 56 9 297 172 156 65 313 34 357 343 337 345 346 344 341
310 326 331 336 334 332 333 336 331 342 324 322 156 304 302 284 311 360 5 346 349 51 351 335 298 13 357 29 26 12 311 323 313 150 133 328 55 30 6 355 345 348 346 345 342
303 312 327 334 330 330 333 335 317 341 337 241 139 262 225 271 306 341 346 357 4 318 312 35 60 57 13 42 259 281 305 285 275 316 344 79 73 50 9 9 352 350 349 347 344
294 294 291 306 317 330 340 354 6 4 347 298 251 234 267 312 286 334 344 252 308 287 253 74 64 4 297 299 194 278 279 291 307 281 338 89 93 310 4 10 1 352 351 349 346
283 286 292 294 299 319 352 41 21 315 307 266 258 285 333 326 332 335 1 80 25 61 12 35 64 306 313 42 22 322 296 328 298 321 318 139 147 229 19 8 9 355 351 349 347
278 286 280 279 291 301 356 80 152 256 262 223 217 229 343 342 56 355 12 18 58 54 33 118 335 342 335 23 358 326 161 313 281 306 292 108 292 318 340 357 2 1 354 355 351
277 282 281 278 269 242 206 223 273 276 299 176 197 356 354 136 350 9 14 12 52 79 34 109 9 3 353 353 25 298 227 322 300 5 246 108 279 10 336 351 357 357 357 352 353
273 277 283 280 256 225 238 236 226 61 291 58 149 155 66 81 2 352 20 36 84 343 83 192 7 13 8 312 316 257 311 284 263 265 347 318 64 309 357 354 343 352 352 351 353
269 269 277 271 250 251 248 259 151 80 249 115 141 163 151 74 39 331 19 60 71 15 51 157 109 78 289 298 284 320 342 13 149 118 32 255 126 349 342 319 332 346 347 349 352
261 261 271 266 252 243 200 151 77 210 39 194 178 203 144 112 106 48 58 13 74 77 357 337 69 87 5 359 350 357 31 358 10 9 226 334 56 272 293 321 308 335 342 348 355
259 256 257 240 241 198 161 77 209 173 96 314 330 267 257 132 94 283 140 67 30 27 82 109 344 21 334 97 253 338 64 122 231 318 294 347 138 235 193 354 340 350 351 356 357
256 239 234 222 205 180 158 160 233 155 136 151 20 231 242 200 145 50 59 134 136 52 142 116 164 118 67 0 49 329 39 181 96 237 324 177 16 311 356 358 353 357 4 356 357
245 223 211 194 173 168 99 235 198 118 135 153 194 274 245 183 117 91 204 120 147 14 312 220 62 260 150 40 20 98 221 36 9 33 337 327 83 263 338 348 348 356 359 355 357
224 170 188 173 158 162 196 208 144 128 152 161 198 191 326 156 157 160 222 321 86 131 69 125 86 283 45 25 42 357 6 22 122 123 158 297 262 221 255 279 320 346 356 357 357
207 130 167 161 157 200 187 160 131 147 138 110 54 32 257 153 120 129 186 53 167 160 143 165 129 97 191 331 346 341 134 106 116 280 215 165 277 232 211 279 23 0 0 4 5
170 114 166 174 178 189 110 104 141 153 178 169 185 210 92 153 107 126 100 111 136 135 173 201 352 29 352 351 355 205 146 133 121 86 233 115 268 169 268 356 17 10 357 7 7
163 132 159 206 228 157 152 183 159 132 145 183 115 111 113 125 64 151 140 197 165 102 115 101 111 156 192 207 141 70 24 116 126 119 226 228 288 323 340 346 354 7 1 5 8
185 173 172 178 219 190 163 148 145 175 200 162 158 236 160 134 80 181 132 111 122 157 62 115 161 114 272 243 158 194 173 170 157 212 167 241 248 281 280 291 349 11 7 360 7
174 155 154 163 148 151 175 202 171 150 161 190 212 190 206 162 191 184 134 185 190 104 83 334 153 97 317 139 61 264 227 192 200 243 259 271 291 212 284 3 9 20 12 4 1
228 169 159 161 142 142 194 174 184 138 190 230 180 152 149 132 106 98 109 117 133 141 147 117 116 91 282 22 7 331 228 184 197 213 170 213 229 313 332 4 28 13 15 6 1